Regional Weather Roundup
Issued by NWS Sterling, VA

Home | Current Version | Previous Version | Graphics & Text | Print | Product List | Glossary On
Versions: 1 2 3 4 5 6 7 8 9 10 11 12 13 14 15 16 17 18 19 20 21 22 23 24 25 26 27 28 29 30 31 32 33 34 35 36 37 38 39 40 41 42 43 44 45 46 47 48 49 50
000
ASUS41 KLWX 171011
RWRLWX

REGIONAL WEATHER ROUNDUP
NATIONAL WEATHER SERVICE BALTIMORE MD/WASHINGTON DC
500 AM EST TUE JAN 17 2017

Note: "FAIR" indicates few or no clouds below 12,000 feet
with no significant weather and/or obstructions to visibility.
 TC=TEMPERATURE CELSIUS

 * =Non NWS site. Station does not report precipitation (e.g. rain,
    snow, etc.), thunder, or fog.

DCZ001-MDZ009-015-VAZ040>042-051-053>054-171100-
WASHINGTON METRO

CITY           SKY/WX    TMP DP  RH WIND       PRES   REMARKS
WASHINGTON NAT LGT RAIN  41  39  93 S3        30.22F
DULLES         CLOUDY    40  38  93 SE3       30.19F
ANDREWS AFB    CLOUDY    39  38  93 S6        30.20F
FT BELVOIR     CLOUDY    39  38  95 CALM      30.20F
QUANTICO       LGT RAIN  41  40  96 CALM      30.23F
LEESBURG*      CLOUDY    43  43 100 MISG      30.21F
GAITHERSBURG*  CLOUDY    39  34  81 SE6       30.22F

$$

MDZ006>007-011-014-171100-
BALTIMORE METRO

CITY           SKY/WX    TMP DP  RH WIND       PRES   REMARKS
BWI AIRPORT    LGT RAIN  38  37  97 SE5       30.21F
MD SCIENCE CTR   N/A     41  35  79 MISG      30.22F
ANNAPOLIS      LGT RAIN  40  36  86 SE5       30.22F
FORT MEADE*    CLOUDY    36  36 100 CALM      30.24F

$$

MDZ012-015-019>023-171100-
MARYLAND EASTERN SHORE

CITY           SKY/WX    TMP DP  RH WIND       PRES   REMARKS
OCEAN CITY     CLOUDY    43  38  82 CALM      30.25F
SALISBURY      CLOUDY    42  37  82 CALM      30.25F
BAY BRIDGE AP* LGT RAIN  39  37  93 SE5       30.23F FOG
CAMBRIDGE*     MOCLDY    37  36  93 CALM      30.25R
EASTON*        PTCLDY    40  37  90 CALM      30.29R

$$

MDZ017>025-171100-
SOUTHERN MARYLAND

CITY           SKY/WX    TMP DP  RH WIND       PRES   REMARKS
PATUXENT RIVER MOCLDY    41  37  86 CALM      30.24F
ST INIGOES     NOT AVBL
LEONARDTOWN*   MOCLDY    39  36  87 CALM      30.24F

$$

MDZ003>005-171100-
NORTH CENTRAL MARYLAND

CITY           SKY/WX    TMP DP  RH WIND       PRES   REMARKS
FREDERICK*     CLOUDY    36  36 100 CALM      30.24F
HAGERSTOWN APT CLOUDY    35  31  85 W5        30.19F FOG
WESTMINSTER*   CLOUDY    36  34  93 CALM      30.19F

$$

MDZ501>502-171100-
WESTERN MARYLAND

CITY           SKY/WX    TMP DP  RH WIND       PRES   REMARKS
OAKLAND*         N/A     45  45 100 S7        30.10F
CUMBERLAND*    CLOUDY    36  36 100 CALM      30.20F

$$

VAZ025>031-171100-
SHENANDOAH VALLEY

CITY           SKY/WX    TMP DP  RH WIND       PRES   REMARKS
WINCHESTER*    CLOUDY    36  34  93 CALM      30.17F FOG
FRONT ROYAL*   CLOUDY    39  39 100 CALM      30.16S
LURAY*         PTSUNNY   43  43 100 CALM      30.16F
NEW MARKET*    CLOUDY    42  40  95 CALM      30.17S
STAUNTON*      CLOUDY    41  40  97 CALM      30.18F
WAYNESBORO*    FAIR      40  40  97 CALM      30.17S

$$

WVZ021-048>050-054>055-171100-
EASTERN WEST VIRGINIA PANHANDLE

CITY           SKY/WX    TMP DP  RH WIND       PRES   REMARKS
MARTINSBURG    CLOUDY    36  33  89 NE3       30.18F FOG
PETERSBURG*    CLOUDY    39  37  91 CALM      30.17F

$$

VAZ036>039-050-171100-
CENTRAL FOOTHILLS

CITY           SKY/WX    TMP DP  RH WIND       PRES   REMARKS
CHARLOTTESVILL CLOUDY    42  39  89 S3        30.17F
CULPEPER*      CLOUDY    42  41  99 S5        30.19F
ORANGE*        LGT RAIN  41  41 100 CALM      30.21F
GORDONSVILLE*  CLOUDY    40  40  99 CALM      30.18F
WARRENTON*     CLOUDY    42  39  89 S3        30.18F

$$

VAZ055>057-171100-
NORTH AND CENTRAL PIEDMONT

CITY           SKY/WX    TMP DP  RH WIND       PRES   REMARKS
FREDERICKSBRG* CLOUDY    40  40 100 SE3       30.21F
STAFFORD*      LGT RAIN  39  39 100 CALM      30.25F

$$

NCZ024-NYZ072-PAZ021-071-VAZ022-071-171100-
OTHER REGIONAL OBSERVATIONS

CITY           SKY/WX    TMP DP  RH WIND       PRES   REMARKS
NEW YORK CITY  CLOUDY    40  27  59 W6        30.24F
PHILADELPHIA   CLOUDY    39  30  70 CALM      30.26S
PITTSBURGH     LGT RAIN  40  40 100 E5        30.03F VSB 3/4
ROANOKE        FOG       41  41 100 CALM      30.20F VSB 1/4
RICHMOND       MOCLDY    42  42 100 S6        30.22F FOG
RALEIGH        CLOUDY    48  45  89 SW7       30.24F FOG

$$

ANZ530>537-171100-
MARINE OBSERVATIONS

STATION/POSITION TIME  TEMP    WIND        PRES
                       AIR SEA DIR/SP/G
                 (UTC) (F)     (DEG/KT/KT) (MB)
THOMAS PT LIGHT  1000   40 38  170/  9/ 10   N/A
BALT KEY BRIDGE  0948   38     100/  4/  4 1023.8F
COVE POINT       0948   40     180/  6/  7 1024.6R
LEWISETTA        0948   42 42  200/  6/  6 1023.6F
SOLOMONS ISLAND  0942   41 40  170/  3/  5   N/A
PINEY POINT      0948          170/  3/  4   N/A

$$




USA.gov is the U.S. government's official web portal to all federal, state and local government web resources and services.